Location: Calvatone
(45.1167°N, 10.4333°E)
Time: 11:27:33
(UTC+00:00)

COSMO-SKYMED 1 - Pass Details

Date: 28 January 2023
Orbit: 621 x 623 km, 97.9° (Epoch: 26 March)

Event Time Altitude Azimuth Distance (km) Brightness Sun altitude
Rises 15:32:11 0° 50° (NE) 2,906 5.3 6.4°
Enters shadow 16:49:59 -39° 4° (N) 9,006 8.3 -5.8°
Maximum altitude 17:12:43 51° 100° (E) 788 2.8 -9.6°
